Location: B
(0.0000°N, 0.0000°E)
Time: 19:26:47
(UTC+02:00)

ISS - All Passes

Search period start: 22 July 2014 00:00
Search period end: 01 August 2014 00:00
Orbit: 412 x 420 km, 51.6° (Epoch: 22 July)

Date Brightness Start Highest point End Pass type
(mag) Time Alt. Az. Time Alt. Az. Time Alt. Az.
22 Jul - 00:59:06 10° SSW 01:02:24 66° SE 01:05:42 10° NE night (unlit)
22 Jul - 12:35:01 10° NNW 12:38:10 40° NE 12:41:19 10° SE daylight
23 Jul - 00:11:08 10° S 00:13:58 26° SE 00:16:48 10° ENE night (unlit)
23 Jul - 11:47:26 10° N 11:49:44 17° NE 11:52:01 10° E daylight
23 Jul - 13:24:20 10° W 13:26:16 15° SW 13:28:12 10° SSW daylight
23 Jul - 23:24:17 10° SSE 23:25:31 12° SE 23:26:45 10° ESE night (unlit)
24 Jul - 00:59:26 10° WSW 01:02:03 21° NW 01:04:40 10° N night (unlit)
24 Jul - 12:34:46 10° WNW 12:37:48 32° SW 12:40:51 10° SSE daylight
25 Jul - 00:10:22 10° SW 00:13:37 52° NW 00:16:51 10° NNE night (unlit)
25 Jul - 11:46:02 10° NW 11:49:22 87° SW 11:52:43 10° SE daylight
25 Jul - 23:21:55 10° SSW 23:25:10 56° SE 23:28:26 10° NE night (unlit)
26 Jul - 10:57:51 10° NNW 11:00:56 35° NE 11:04:01 10° ESE daylight
26 Jul - 22:34:02 10° S 22:36:44 23° SE 22:39:25 10° ENE night (unlit)
27 Jul - 00:12:22 10° WNW 00:13:16 11° NW 00:14:09 10° NW night (unlit)
27 Jul - 10:10:24 10° NNE 10:12:28 15° NE 10:14:33 10° E daylight
27 Jul - 11:46:49 10° W 11:49:00 16° SW 11:51:12 10° SSW daylight
27 Jul - 21:47:47 10° SE 21:48:15 10° SE 21:48:43 10° ESE night (unlit)
27 Jul - 23:22:03 10° WSW 23:24:47 24° NW 23:27:32 10° N night (unlit)
28 Jul - 10:57:25 10° NW 11:00:32 37° SW 11:03:40 10° SSE daylight
28 Jul - 22:33:04 10° SW 22:36:20 61° NW 22:39:37 10° NNE night (unlit)
29 Jul - 10:08:45 10° NNW 10:12:05 81° NE 10:15:26 10° SE daylight
29 Jul - 21:44:41 10° SSW 21:47:54 48° SE 21:51:06 10° NE visible
30 Jul - 09:20:39 10° N 09:23:38 31° NE 09:26:38 10° ESE daylight
30 Jul - 20:56:54 10° S 20:59:26 20° SE 21:01:57 10° ENE visible
30 Jul - 22:34:32 10° W 22:35:58 12° NW 22:37:23 10° NNW visible
31 Jul - 08:33:22 10° NNE 08:35:10 14° NE 08:36:57 10° E daylight
31 Jul - 10:09:17 10° W 10:11:42 18° SW 10:14:07 10° S daylight
31 Jul - 21:44:37 10° WSW 21:47:29 27° NW 21:50:21 10° N visible
